This is the latest recevied weather packets stored in our database for station/object OK2PAT-12. If no packets are shown the sender has not sent any weather packets the latest 10 day(s).
| Time | Temp. | Humidity | Pressure | Rain* | Wind** | Luminosity | Snow |
|---|---|---|---|---|---|---|---|
| 1788570172 | 18.89° C | 84% | 1015.4 hPa | - | - | - | - |
| 1788569572 | 18.89° C | 84% | 1015.2 hPa | - | - | - | - |
| 1788568371 | 18.33° C | 84% | 1015 hPa | - | - | - | - |
| 1788567771 | 18.33° C | 85% | 1014.9 hPa | - | - | - | - |
| 1788567171 | 18.33° C | 85% | 1014.8 hPa | - | - | - | - |
| 1788565971 | 18.33° C | 84% | 1014.6 hPa | - | - | - | - |
| 1788565371 | 18.33° C | 84% | 1014.6 hPa | - | - | - | - |
| 1788564771 | 18.89° C | 84% | 1014.4 hPa | - | - | - | - |
| 1788563571 | 18.89° C | 84% | 1014.3 hPa | - | - | - | - |
| 1788562971 | 18.89° C | 84% | 1014.3 hPa | - | - | - | - |
| 1788562371 | 19.44° C | 84% | 1014.2 hPa | - | - | - | - |
| 1788561771 | 19.44° C | 84% | 1014.1 hPa | - | - | - | - |
| 1788561168 | 19.44° C | 83% | 1013.9 hPa | - | - | - | - |
| 1788559970 | 20.56° C | 78% | 1013.4 hPa | - | - | - | - |
| 1788558768 | 22.22° C | 76% | 1013 hPa | - | - | - | - |
| 1788558168 | 22.22° C | 74% | 1012 hPa | - | - | - | - |
| 1788557567 | 22.78° C | 73% | 1011.7 hPa | - | - | - | - |
| 1788556967 | 22.78° C | 73% | 1011.6 hPa | - | - | - | - |
| 1788556363 | 22.78° C | 73% | 1011.7 hPa | - | - | - | - |
| 1788555762 | 22.78° C | 73% | 1011.7 hPa | - | - | - | - |
| 1788555162 | 22.78° C | 73% | 1011.6 hPa | - | - | - | - |
| 1788554562 | 22.78° C | 73% | 1011.5 hPa | - | - | - | - |
| 1788553962 | 22.78° C | 73% | 1011.5 hPa | - | - | - | - |
| 1788553362 | 22.78° C | 73% | 1011.5 hPa | - | - | - | - |
| 1788552762 | 22.78° C | 73% | 1011.6 hPa | - | - | - | - |
* Rain since midnight (hover to see other rain measurements)
** Current wind speed in m/s (hover to see current wind gust speed)